Hourly Weather Bolshoe Gatische

Today, 24 July, Saturday

Time Temperature Precipitation Wind Pressure Humidity
00:00 +15°C° 0 mm 2 mps 744 mmHg 89%
01:00 +15°C° 0 mm 2 mps 744 mmHg 90%
02:00 +15°C° 0 mm 2 mps 744 mmHg 91%
03:00 +15°C° 0 mm 2 mps 744 mmHg 91%
04:00 +15°C° 0 mm 2 mps 744 mmHg 91%
05:00 +15°C° 0 mm 2 mps 744 mmHg 91%
06:00 +16°C° 0 mm 2 mps 744 mmHg 86%
07:00 +18°C° 0 mm 2 mps 744 mmHg 80%
08:00 +20°C° 0 mm 2 mps 744 mmHg 74%
09:00 +21°C° 0 mm 2 mps 744 mmHg 68%
10:00 +23°C° 0 mm 2 mps 744 mmHg 63%
11:00 +24°C° 0 mm 2 mps 744 mmHg 58%
12:00 +25°C° 0 mm 2 mps 744 mmHg 56%
13:00 +25°C° 0 mm 2 mps 744 mmHg 55%
14:00 +26°C° 0 mm 2 mps 744 mmHg 53%
15:00 +25°C° 0.2 mm 2 mps 744 mmHg 57%
16:00 +25°C° 0.2 mm 2 mps 744 mmHg 60%
17:00 +25°C° 0.2 mm 2 mps 744 mmHg 64%
18:00 +23°C° 0.1 mm 1 mps 744 mmHg 69%
19:00 +22°C° 0.1 mm 1 mps 745 mmHg 73%
20:00 +21°C° 0.1 mm 1 mps 745 mmHg 77%
21:00 +20°C° 0 mm 1 mps 745 mmHg 79%
22:00 +19°C° 0 mm 1 mps 745 mmHg 80%
23:00 +19°C° 0 mm 1 mps 745 mmHg 81%

Tomorrow, 25 July, Sunday

Time Temperature Precipitation Wind Pressure Humidity
00:00 +19°C° 0 mm 1 mps 745 mmHg 81%
01:00 +19°C° 0 mm 1 mps 745 mmHg 81%
02:00 +19°C° 0 mm 1 mps 745 mmHg 80%
03:00 +19°C° 0 mm 1 mps 745 mmHg 80%
04:00 +19°C° 0 mm 1 mps 745 mmHg 80%
05:00 +19°C° 0 mm 1 mps 746 mmHg 79%
06:00 +20°C° 0 mm 1 mps 746 mmHg 78%
07:00 +21°C° 0 mm 1 mps 746 mmHg 76%
08:00 +22°C° 0 mm 1 mps 746 mmHg 74%
09:00 +23°C° 0.2 mm 1 mps 746 mmHg 70%
10:00 +24°C° 0.2 mm 2 mps 746 mmHg 67%
11:00 +25°C° 0.2 mm 2 mps 747 mmHg 63%
12:00 +26°C° 0.1 mm 2 mps 747 mmHg 57%
13:00 +26°C° 0.1 mm 2 mps 747 mmHg 52%
14:00 +27°C° 0.1 mm 2 mps 746 mmHg 47%
15:00 +27°C° 0 mm 2 mps 746 mmHg 48%
16:00 +27°C° 0 mm 2 mps 746 mmHg 49%
17:00 +27°C° 0 mm 2 mps 746 mmHg 50%
18:00 +25°C° 0 mm 2 mps 746 mmHg 56%
19:00 +24°C° 0 mm 2 mps 746 mmHg 62%
20:00 +21°C° 0 mm 2 mps 747 mmHg 68%
21:00 +20°C° 0 mm 3 mps 747 mmHg 71%
22:00 +19°C° 0 mm 3 mps 747 mmHg 74%
23:00 +18°C° 0 mm 3 mps 747 mmHg 77%

Day after tomorrow, 26 July, Monday

Time Temperature Precipitation Wind Pressure Humidity
00:00 +18°C° 0 mm 3 mps 747 mmHg 77%
01:00 +18°C° 0 mm 3 mps 747 mmHg 76%
02:00 +17°C° 0 mm 3 mps 747 mmHg 75%
03:00 +17°C° 0 mm 3 mps 747 mmHg 77%
04:00 +17°C° 0 mm 3 mps 747 mmHg 79%
05:00 +16°C° 0 mm 3 mps 747 mmHg 81%
06:00 +18°C° 0 mm 3 mps 747 mmHg 76%
07:00 +20°C° 0 mm 3 mps 747 mmHg 71%
08:00 +22°C° 0 mm 4 mps 747 mmHg 66%
09:00 +23°C° 0 mm 4 mps 747 mmHg 60%
10:00 +26°C° 0 mm 4 mps 747 mmHg 55%
11:00 +27°C° 0 mm 5 mps 747 mmHg 49%
12:00 +28°C° 0 mm 5 mps 747 mmHg 47%
13:00 +29°C° 0 mm 5 mps 747 mmHg 44%
14:00 +29°C° 0 mm 5 mps 747 mmHg 41%
15:00 +29°C° 0 mm 4 mps 746 mmHg 44%
16:00 +29°C° 0 mm 4 mps 746 mmHg 47%
17:00 +29°C° 0 mm 4 mps 746 mmHg 49%
18:00 +27°C° 0 mm 4 mps 746 mmHg 54%
19:00 +25°C° 0 mm 3 mps 746 mmHg 59%
20:00 +24°C° 0 mm 3 mps 746 mmHg 64%
21:00 +22°C° 0 mm 3 mps 746 mmHg 67%
22:00 +21°C° 0 mm 4 mps 746 mmHg 69%
23:00 +20°C° 0 mm 4 mps 746 mmHg 71%

27 July, Tuesday

Time Temperature Precipitation Wind Pressure Humidity
00:00 +19°C° 0.1 mm 4 mps 746 mmHg 75%
01:00 +19°C° 0.1 mm 4 mps 746 mmHg 80%
02:00 +19°C° 0.1 mm 4 mps 746 mmHg 84%
03:00 +19°C° 0 mm 4 mps 746 mmHg 84%
04:00 +19°C° 0 mm 4 mps 745 mmHg 84%
05:00 +18°C° 0 mm 4 mps 745 mmHg 84%
06:00 +20°C° 0 mm 5 mps 745 mmHg 79%
07:00 +21°C° 0 mm 5 mps 745 mmHg 74%
08:00 +22°C° 0 mm 5 mps 745 mmHg 69%
09:00 +24°C° 0 mm 6 mps 745 mmHg 63%
10:00 +27°C° 0 mm 6 mps 745 mmHg 57%
11:00 +28°C° 0 mm 6 mps 745 mmHg 51%
12:00 +29°C° 0 mm 6 mps 745 mmHg 48%
13:00 +30°C° 0 mm 6 mps 744 mmHg 46%
14:00 +32°C° 0 mm 6 mps 744 mmHg 44%
15:00 +32°C° 0 mm 5 mps 744 mmHg 47%
16:00 +32°C° 0 mm 4 mps 743 mmHg 49%
17:00 +31°C° 0 mm 3 mps 743 mmHg 52%
18:00 +28°C° 0.5 mm 3 mps 743 mmHg 64%
19:00 +25°C° 0.5 mm 3 mps 743 mmHg 76%
20:00 +22°C° 0.5 mm 3 mps 743 mmHg 88%
21:00 +21°C° 1.4 mm 3 mps 743 mmHg 90%
22:00 +20°C° 1.4 mm 2 mps 743 mmHg 93%
23:00 +20°C° 1.4 mm 2 mps 743 mmHg 96%

28 July, Wednesday

Time Temperature Precipitation Wind Pressure Humidity
00:00 +20°C° 0.3 mm 1 mps 743 mmHg 96%
01:00 +20°C° 0.3 mm 1 mps 742 mmHg 96%
02:00 +20°C° 0.3 mm 1 mps 742 mmHg 97%
03:00 +20°C° 0.1 mm 1 mps 742 mmHg 97%
04:00 +20°C° 0.1 mm 1 mps 742 mmHg 97%
05:00 +20°C° 0.1 mm 1 mps 742 mmHg 97%
06:00 +21°C° 0 mm 1 mps 742 mmHg 93%
07:00 +22°C° 0 mm 1 mps 742 mmHg 89%
08:00 +21°C° 0 mm 0 mps 742 mmHg 85%
09:00 +24°C° 0 mm 1 mps 742 mmHg 79%
10:00 +25°C° 0 mm 2 mps 742 mmHg 73%
11:00 +27°C° 0 mm 2 mps 742 mmHg 67%
12:00 +27°C° 0.1 mm 3 mps 742 mmHg 63%
13:00 +28°C° 0.1 mm 3 mps 742 mmHg 60%
14:00 +29°C° 0.1 mm 3 mps 742 mmHg 56%
15:00 +28°C° 0.1 mm 3 mps 742 mmHg 58%
16:00 +28°C° 0.1 mm 2 mps 742 mmHg 60%
17:00 +28°C° 0.1 mm 2 mps 742 mmHg 63%
18:00 +26°C° 0.1 mm 2 mps 742 mmHg 68%
19:00 +25°C° 0.1 mm 2 mps 741 mmHg 73%
20:00 +23°C° 0.1 mm 2 mps 741 mmHg 78%
21:00 +23°C° 0 mm 1 mps 741 mmHg 78%
22:00 +22°C° 0 mm 1 mps 741 mmHg 79%
23:00 +22°C° 0 mm 1 mps 741 mmHg 80%

29 July, Thursday

Time Temperature Precipitation Wind Pressure Humidity
00:00 +21°C° 0 mm 1 mps 741 mmHg 82%
01:00 +21°C° 0 mm 1 mps 741 mmHg 84%
02:00 +19°C° 0 mm 2 mps 741 mmHg 85%
03:00 +19°C° 0 mm 2 mps 741 mmHg 86%
04:00 +19°C° 0 mm 2 mps 741 mmHg 87%
05:00 +19°C° 0 mm 2 mps 741 mmHg 88%
06:00 +20°C° 0 mm 2 mps 741 mmHg 84%
07:00 +21°C° 0 mm 3 mps 742 mmHg 80%
08:00 +24°C° 0 mm 3 mps 742 mmHg 76%
09:00 +25°C° 0 mm 3 mps 742 mmHg 72%
10:00 +25°C° 0 mm 3 mps 742 mmHg 68%
11:00 +26°C° 0 mm 3 mps 743 mmHg 63%
12:00 +27°C° 0 mm 3 mps 743 mmHg 61%
13:00 +28°C° 0 mm 4 mps 743 mmHg 58%
14:00 +28°C° 0 mm 4 mps 743 mmHg 56%
15:00 +28°C° 0 mm 4 mps 742 mmHg 56%
16:00 +28°C° 0 mm 4 mps 742 mmHg 56%
17:00 +28°C° 0 mm 4 mps 742 mmHg 57%
18:00 +26°C° 0 mm 3 mps 742 mmHg 63%
19:00 +24°C° 0 mm 3 mps 742 mmHg 69%
20:00 +21°C° 0 mm 3 mps 742 mmHg 75%
21:00 +20°C° 0 mm 2 mps 742 mmHg 76%
22:00 +19°C° 0 mm 2 mps 743 mmHg 77%
23:00 +18°C° 0 mm 2 mps 743 mmHg 77%
Show more

We Need Your Consent

Meteoprog and our Service Providers may store and access personal data such as cookies, device identifiers or other similar technologies on your device and process such data to personalise content and ads, as well as provide social media features and to analyse the traffic.

  • Store and/or access information on your device

    Cookies, device identifiers or other information can be stored or accessed on your device for the purposes indicated above.

  • Personalised ads and content, ad and content measurement, audience insights, and products development

    Ads and content can be personalised based on a profile. More data can be added to better personalise ads and content. Ad and content performance can be measured. Insights about the audience who saw the ads and content can be derived. Such data can be used to develop or improve user’s experience, systems and software.

By clicking ‘I Agree’ you will allow the use of indicated cookies, device identifiers, web beacons or other similar technologies. Your settings can be changed in the browser on your device.

For certain purposes, legitimate interests may be relied on, rather than consent. You can read more about this in our Privacy and Cookie Policy.